FMCAZ BGSF-BGGH

Flight info

Callsign FMCAZ
Flight time N/A
Altitude 26000
Route GILPO1B GILPO DCT BAKUG DCT GETDA
Aircraft SF34/M-SBDE2E3FGHIJ4J5M1RWXY/LB1D1

Departure

Time 2026-04-29 14:44
Airport Kangerlussuaq International Airport (BGSF)

Arrival

Time N/A
Airport Nuuk International Airport (BGGH)
Time Latitude Longitude Altitude Speed Heading
2026-04-29 14:40 67.01112 -50.70071 146 ft 0 kts 13°
2026-04-29 14:42 67.01115 -50.70068 147 ft 3 kts 13°
2026-04-29 14:42 67.01146 -50.70048 151 ft 4 kts 20°
2026-04-29 14:42 67.01233 -50.69770 160 ft 20 kts 57°
2026-04-29 14:42 67.01301 -50.69494 165 ft 17 kts 57°
2026-04-29 14:43 67.01395 -50.69268 183 ft 12 kts 36°
2026-04-29 14:43 67.01461 -50.69146 194 ft 12 kts 34°
2026-04-29 14:43 67.01566 -50.69040 211 ft 16 kts 353°
2026-04-29 14:43 67.01616 -50.69282 229 ft 35 kts 238°
2026-04-29 14:44 67.01363 -50.70491 218 ft 107 kts 240°
2026-04-29 14:44 67.01047 -50.72070 797 ft 98 kts 239°
2026-04-29 14:44 67.00682 -50.73620 1257 ft 106 kts 218°
2026-04-29 14:44 66.99888 -50.73178 1484 ft 132 kts 151°
2026-04-29 14:45 66.99088 -50.71977 1860 ft 138 kts 156°
2026-04-29 14:45 66.98294 -50.70666 2340 ft 136 kts 150°
2026-04-29 14:45 66.97524 -50.69255 2838 ft 135 kts 149°
2026-04-29 14:45 66.96781 -50.67865 3338 ft 133 kts 149°
2026-04-29 14:46 66.96053 -50.66467 3828 ft 133 kts 149°
2026-04-29 14:46 66.95320 -50.65030 4302 ft 134 kts 149°
2026-04-29 14:46 66.94542 -50.63529 4750 ft 141 kts 150°
2026-04-29 14:46 66.93677 -50.62456 5209 ft 140 kts 163°
2026-04-29 14:47 66.92772 -50.61381 5676 ft 143 kts 163°
2026-04-29 14:47 66.91867 -50.60294 6120 ft 147 kts 163°
2026-04-29 14:47 66.90855 -50.59225 6636 ft 190 kts 167°
2026-04-29 14:47 66.90058 -50.58369 6975 ft 183 kts 163°
2026-04-29 14:48 66.88589 -50.56708 7550 ft 176 kts 163°
2026-04-29 14:48 66.87455 -50.56036 7976 ft 239 kts 197°
2026-04-29 14:48 66.86288 -50.57778 8592 ft 174 kts 227°
2026-04-29 14:48 66.85322 -50.59261 9004 ft 150 kts 223°
2026-04-29 14:49 66.84331 -50.60981 9761 ft 205 kts 223°
2026-04-29 14:49 66.83099 -50.62300 10183 ft 178 kts 211°
2026-04-29 14:49 66.82053 -50.63418 10576 ft 152 kts 214°
2026-04-29 14:49 66.81155 -50.64430 10960 ft 131 kts 211°
2026-04-29 14:50 66.79962 -50.65050 12041 ft 176 kts 205°
2026-04-29 14:50 66.78823 -50.65585 12451 ft 155 kts 198°
2026-04-29 14:50 66.77708 -50.66442 13373 ft 206 kts 210°
2026-04-29 14:50 66.76428 -50.66830 13965 ft 174 kts 182°
2026-04-29 14:51 66.75294 -50.66953 14267 ft 155 kts 182°
2026-04-29 14:51 66.74286 -50.67161 14457 ft 137 kts 188°
2026-04-29 14:51 66.73069 -50.67911 15476 ft 215 kts 198°
2026-04-29 14:51 66.71696 -50.68298 15808 ft 197 kts 188°